User: anonymous   Login
Location: Alpha Ridge Park
(39.3209°N, 76.9128°W)
Time: 00:49:26
(UTC-04:00)
Language:

Vanguard 2 Rocket - Orbit

View from above orbital plane
View from above orbital plane
View from above satellite
View from above satellite

Ground track
Ground track

The orbit data is extracted from the following two-line orbital elements,

1    12U 59001B   19139.81067986  .00000255  00000-0  14323-3 0  9994
2    12  32.8994 291.6838 1664753 161.2067 205.8242 11.44251563477342
Epoch (UTC): 19 May 2019 19:27:22
Eccentricity: 0.1664753
inclination: 32.8994°
perigee height: 555 km
apogee height: 3325 km
right ascension of ascending node: 291.6838°
argument of perigee: 161.2067°
revolutions per day: 11.44251563
mean anomaly at epoch: 205.8242°
orbit number at epoch: 47734

The dashed part of the orbit path shows where the satellite is in the earth's shadow,  

DLR